This is the latest recevied weather packets stored in our database for station/object KC2TER. If no packets are shown the sender has not sent any weather packets the latest 10 day(s).
| Time | Temp. | Humidity | Pressure | Rain* | Wind** | Luminosity | Snow |
|---|---|---|---|---|---|---|---|
| 1777740994 | 13.89° C | 69% | 1011.7 hPa | 0 mm | - | 173 W/m² | - |
| 1777740692 | 14.44° C | 68% | 1011.6 hPa | 0 mm | - | 219 W/m² | - |
| 1777740387 | 14.44° C | 67% | 1011.9 hPa | 0 mm | - | 234 W/m² | - |
| 1777740084 | 13.89° C | 68% | 1012 hPa | 0 mm | - | 399 W/m² | - |
| 1777739780 | 13.89° C | 68% | 1012 hPa | 0 mm | - | 204 W/m² | - |
| 1777739477 | 13.89° C | 69% | 1011.8 hPa | 0 mm | - | 210 W/m² | - |
| 1777739174 | 13.89° C | 68% | 1012.2 hPa | 0 mm | - | 218 W/m² | - |
| 1777738871 | 13.89° C | 69% | 1012 hPa | 0 mm | - | 243 W/m² | - |
| 1777738568 | 13.89° C | 69% | 1012.2 hPa | 0 mm | - | 314 W/m² | - |
| 1777738265 | 13.89° C | 69% | 1012.1 hPa | 0 mm | - | 358 W/m² | - |
| 1777737963 | 13.89° C | 69% | 1011.8 hPa | 0 mm | - | 306 W/m² | - |
| 1777737662 | 13.89° C | 68% | 1012.1 hPa | 0 mm | - | 266 W/m² | - |
| 1777737360 | 13.89° C | 69% | 1012 hPa | 0 mm | - | 224 W/m² | - |
| 1777737056 | 13.89° C | 69% | 1011.9 hPa | 0 mm | - | 188 W/m² | - |
| 1777736752 | 13.89° C | 71% | 1012 hPa | 0 mm | - | 236 W/m² | - |
| 1777736124 | 13.89° C | 71% | 1011.9 hPa | 0 mm | - | 234 W/m² | - |
| 1777735821 | 13.89° C | 72% | 1012.1 hPa | 0 mm | - | 301 W/m² | - |
| 1777735519 | 13.89° C | 71% | 1011.9 hPa | 0 mm | - | 267 W/m² | - |
| 1777735216 | 13.33° C | 71% | 1011.9 hPa | 0 mm | - | 248 W/m² | - |
| 1777734913 | 13.33° C | 72% | 1012 hPa | 0 mm | - | 257 W/m² | - |
| 1777734610 | 13.89° C | 72% | 1012.2 hPa | 0 mm | - | 305 W/m² | - |
| 1777734308 | 13.33° C | 73% | 1012.2 hPa | 0 mm | - | 253 W/m² | - |
| 1777734003 | 13.33° C | 73% | 1012.2 hPa | 0 mm | - | 233 W/m² | - |
| 1777733700 | 13.33° C | 74% | 1012.1 hPa | 0 mm | - | 209 W/m² | - |
| 1777733396 | 12.78° C | 74% | 1012 hPa | 0 mm | - | 172 W/m² | - |
* Rain latest hour (hover to see other rain measurements)
** Current wind speed in m/s (hover to see current wind gust speed)